Showing default

GONETS D1 9, 27060

Orbit data source: Space-Track

GONETS D1 9, 27060 is a payload satellite owned by Gonets (CIS) in LEO that was launched on Fri, 28 Dec 2001 UTC via a TSIKLON-3 launch vehicle from the Plesetsk Missile And Space Complex (PKMTR). Payload-class satellites include a variety of spacecraft equipped with specific instruments for various scientific and technological missions. These include communications satellites like Starlink; space stations such as the ISS; scientific satellites like the Hubble; Earth observation satellites from companies like Planet Labs, Umbra, and HawkEye 360; GPS; miniature CubeSats for education and research; and military/defense satellites.

Loading next visibility...
Identifier
27060, 2001-058F
Orbit
LEO
Country
Flag of CISCIS
Related business
Manufacturer
NPO PM
Mission
Non-operational Civil Communications
Bus & Motor
STRELA-3, Unknown motor
Mass
225 kg wet, 225 kg dry
Launch date (UTC)
2001-12-28 (24 years ago)
Launch vehicle
TSIKLON-3
Launch site
Plesetsk Missile And Space Complex (PKMTR)
Object type
Payload
Rocket body
Debris
Shape & HBR
Cyl + 1 Ant, 3.5 m
Radar Cross Section
1.798 m², Medium (>0.1 m² and < 1m²)

Expand to show TLE details & history
Last TLE update: 8 hours ago

TLE from 8 hours ago
0 GONETS D1 9
1 27060U 01058F   25307.77860830  .00000035  00000-0  13528-3 0  9995
2 27060  82.5415 340.8079 0009621  97.4732 262.7453 12.63056441 99372
Epoch: 2025-11-03T18:41Z
TLE epoch observation values (Epoch: 2025-11-03T18:41:11.757Z)
Latitude
0.00001°
Longitude
17.23382°
Altitude
1,414.038 km
Speed
7.153 km/s
True Right ascension
22h 43m 13s
True Declination
0° 00' 00"
Sunlit
Object was in daylight at epoch
Visualization orbit readout
Latitude
Unknown
Longitude
Unknown
Altitude
Unknown
Speed
Unknown
Apparent Right ascension
Unknown
Apparent Declination
Unknown
Sunlit
N/A
Visualization observer readout
Local Sidereal Time
22:42:28
Azimuth
Unknown
Elevation
Unknown
Doppler factor
Unknown
Orbital elements
Apogee altitude
1,415.166 km
Perigee altitude
1,400.185 km
Semi-major axis
7,785.812 km
Eccentricity
0.00096
Inclination
82.5415°
RAAN
340.8079°
Arg. of periapsis
97.4732°
True anomaly
262.63595°
Mean anomaly
262.7453°
Eccentric anomaly
262.69062°
Mean motion
3.15927 °/min
Orbital period
113.95 mins
BSTAR
0.00013528
Loading maneuver chart data...
Computing Atmospheric mass density...
Loading historical data...
Loading historical data...
Loading historical data...
Loading historical data...
Loading historical data...
Loading historical data...
Loading historical data...

Documentation

Showing up to 5 results
|